Wind_Speed
41 41 41 41 42 42 43 43 44 43 42 42 42 43 43 43 44 44 44 44 44 43 43 43 42 42 42 41 41 42 41 41 40 40 40 40 39 40
42 42 42 43 43 43 43 44 44 44 44 43 42 43 43 43 44 44 43 43 43 43 42 42 42 42 42 42 41 41 40 39 40 40 40 39 39 39
42 42 43 43 43 43 44 44 45 44 44 44 43 42 43 43 44 44 43 42 41 41 41 42 41 40 40 40 40 40 39 38 38 39 39 39 38 38
42 42 42 43 43 44 44 45 45 45 45 44 43 42 42 43 43 43 42 41 41 40 40 40 40 39 38 38 38 38 38 38 38 39 39 39 38 38
41 41 42 43 43 44 44 45 45 46 45 44 43 42 42 42 41 41 40 40 39 39 39 38 38 37 37 37 37 37 37 38 38 38 38 37 37 37
42 42 43 43 43 44 44 45 46 46 45 44 43 43 43 42 41 41 40 40 39 39 39 38 38 37 37 37 38 38 38 38 38 38 38 37 36 36
42 43 43 43 43 43 44 45 45 45 45 44 43 43 42 41 41 41 40 39 39 39 38 38 38 38 37 37 38 38 39 39 39 38 38 38 37 37
42 42 42 42 43 44 44 44 45 44 43 42 42 42 41 40 40 40 39 38 38 38 38 38 38 37 37 38 38 38 38 38 38 38 38 38 37 36
42 42 42 42 43 44 44 43 43 42 41 41 41 40 39 38 38 38 38 38 37 37 37 37 37 37 38 38 38 38 38 37 37 37 37 37 37 37
41 42 42 42 42 42 42 41 41 40 40 39 39 38 37 37 37 37 37 37 37 37 37 36 36 36 37 37 38 38 37 36 36 36 37 37 37 37
41 41 41 40 40 40 40 40 39 39 38 38 37 37 36 36 36 36 36 36 36 36 36 35 35 36 36 36 36 36 36 35 35 35 35 35 34 35
39 39 39 38 38 38 39 38 37 37 37 37 36 36 35 35 35 35 36 36 35 34 35 34 35 35 35 35 35 34 33 33 32 32 33 33 33 33
37 37 37 36 36 36 37 36 35 36 36 35 35 35 34 35 35 35 35 35 34 33 33 33 33 34 34 33 33 32 32 32 31 31 31 31 31 30
36 35 35 35 35 35 35 35 35 35 35 34 34 34 34 35 35 35 34 34 33 32 33 33 33 33 32 31 30 30 30 30 30 29 29 29 29 29
34 34 33 33 33 33 33 33 34 35 34 34 33 33 33 33 33 33 32 32 31 31 32 32 32 31 31 30 29 29 29 28 28 28 28 28 28 28
31 31 31 31 31 31 32 33 33 33 33 33 33 33 32 32 31 31 30 30 30 30 30 30 30 29 29 29 29 29 28 28 27 27 27 27 27 27
29 29 30 30 30 31 31 32 32 33 32 31 32 31 31 30 30 30 29 29 29 29 29 29 29 29 29 29 28 28 27 27 26 26 26 26 25 25
30 30 30 30 30 30 30 30 31 31 30 30 30 29 29 29 29 29 29 29 29 28 28 28 28 28 28 27 26 26 26 26 25 25 25 25 24 24
30 30 30 30 30 29 28 28 27 27 27 28 28 28 28 28 28 28 28 28 27 27 27 27 27 26 26 26 25 26 26 25 24 24 24 24 24 24
30 29 30 29 29 28 27 27 26 26 26 26 26 26 27 27 27 27 26 26 26 26 26 26 26 26 26 25 25 25 25 25 24 24 24 24 24 24
29 28 28 28 28 28 27 26 26 26 26 25 25 25 25 25 25 25 25 25 25 25 25 25 25 25 25 24 24 23 23 23 24 24 23 23 23 23
28 28 28 28 28 27 26 25 25 25 25 24 24 24 24 24 24 24 24 24 24 24 24 24 23 23 23 22 22 21 22 22 22 23 23 22 22 21
28 28 28 27 27 26 25 24 24 24 23 23 23 23 23 23 23 23 23 23 23 23 23 22 22 22 22 21 21 21 21 21 22 22 22 21 20 19
Wind_Direction
266 268 269 270 270 271 272 274 275 276 277 278 278 278 279 280 281 282 283 283 282 282 282 282 282 283 283 282 282 282 283 283 283 282 282 282 282 281
267 268 268 269 270 271 273 275 276 277 278 278 278 278 279 280 281 282 282 282 281 281 282 282 282 283 283 282 283 284 282 282 282 281 282 282 282 280
268 269 269 269 270 273 274 276 277 278 280 280 279 280 280 281 282 282 282 281 281 282 282 281 282 283 284 283 283 283 281 281 281 281 283 283 282 280
268 270 270 271 272 273 275 277 277 279 280 280 280 280 280 281 282 282 281 280 281 282 282 282 282 284 284 284 284 283 282 281 282 282 282 282 280 279
269 270 271 272 272 274 275 277 278 279 279 280 279 278 279 281 282 282 282 281 281 282 282 283 283 282 283 282 283 284 284 284 284 283 282 281 280 280
268 269 270 271 272 274 276 278 279 279 279 279 279 279 280 281 282 281 281 280 280 280 281 281 282 282 282 281 282 283 283 283 283 282 281 280 280 279
269 270 270 269 271 274 275 277 278 278 279 279 279 279 279 280 281 281 280 279 279 280 280 280 280 281 281 281 281 282 282 282 282 281 280 281 281 280
269 269 271 270 272 273 275 277 278 277 278 278 278 279 279 279 279 280 280 279 280 279 280 280 280 280 280 280 281 282 282 282 282 282 282 282 281 279
269 269 270 270 271 273 275 276 277 276 276 277 277 278 278 278 279 279 279 280 280 280 280 281 280 280 280 281 281 283 283 282 282 283 283 283 281 279
269 270 270 270 271 272 274 275 276 276 275 276 277 277 276 276 277 277 278 279 280 281 281 280 279 280 282 281 281 283 284 284 284 284 285 284 283 281
270 271 270 270 271 272 273 274 274 274 274 275 276 275 275 276 276 276 277 279 280 280 280 279 279 280 282 282 282 283 284 284 285 285 286 287 286 284
271 271 270 270 272 273 273 273 273 273 274 275 274 274 275 275 275 276 278 279 280 279 279 279 281 281 281 281 282 282 283 285 285 286 288 288 287 286
270 270 269 270 272 273 272 272 272 272 274 274 274 273 273 274 274 276 277 278 279 279 279 280 282 283 282 281 282 283 284 285 284 285 287 287 288 287
270 269 269 270 271 271 272 271 272 272 273 274 273 272 272 273 274 276 277 278 279 279 280 282 283 283 283 282 282 283 285 286 285 285 286 286 287 288
269 268 268 270 271 271 271 271 273 274 273 274 273 272 273 274 276 277 278 279 279 280 282 284 284 284 283 283 282 282 283 285 285 286 287 286 286 288
269 268 268 269 270 273 273 273 274 275 274 274 273 274 274 275 276 276 277 279 279 279 282 283 284 284 284 284 283 283 283 283 284 285 288 288 288 289
267 267 268 269 272 274 275 275 275 275 274 274 274 273 272 273 274 275 276 277 278 279 280 282 283 285 284 285 285 285 285 285 285 285 287 289 290 291
266 267 268 269 272 275 276 277 276 275 273 272 272 271 271 272 273 274 274 275 277 279 280 281 282 283 284 284 285 285 285 286 286 286 287 287 289 290
266 267 268 270 272 274 275 276 276 275 274 273 272 271 271 272 273 274 275 275 277 279 280 281 282 282 281 282 284 286 286 286 286 288 289 289 289 290
266 267 268 269 271 273 274 274 274 274 275 275 274 274 272 271 273 274 275 276 277 279 280 281 281 281 282 283 284 285 286 286 287 289 291 291 291 292
264 265 267 268 269 271 272 273 272 273 274 275 274 273 272 272 273 273 274 276 277 278 279 280 280 281 283 284 285 286 286 287 288 289 291 292 292 293
262 263 265 266 267 269 271 272 272 273 273 274 273 273 272 273 273 274 274 275 276 277 278 279 279 280 282 284 286 286 287 288 289 290 292 292 292 291
262 263 264 265 265 267 268 271 272 272 273 273 273 272 273 274 274 274 274 274 276 276 276 277 278 280 282 284 286 288 289 289 290 292 293 293 293 291
Height
5691 5692 5692 5691 5691 5691 5690 5689 5689 5688 5688 5686 5683 5680 5678 5676 5673 5671 5669 5666 5663 5661 5658 5656 5654 5651 5649 5646 5644 5642 5640 5638 5636 5634 5632 5630 5627 5626
5680 5681 5681 5681 5681 5680 5679 5678 5677 5676 5676 5675 5672 5669 5667 5665 5663 5660 5658 5655 5652 5650 5648 5645 5643 5641 5638 5636 5634 5631 5629 5627 5625 5623 5621 5619 5617 5615
5670 5670 5670 5670 5669 5669 5668 5667 5666 5665 5664 5663 5661 5658 5656 5654 5651 5649 5647 5644 5642 5639 5637 5634 5632 5630 5628 5625 5623 5621 5619 5617 5615 5613 5610 5609 5606 5605
5659 5659 5659 5658 5658 5657 5657 5656 5654 5653 5651 5650 5649 5647 5645 5642 5640 5638 5636 5634 5631 5629 5626 5624 5622 5620 5617 5615 5613 5611 5609 5607 5605 5603 5600 5598 5596 5594
5647 5647 5647 5647 5647 5646 5645 5644 5643 5641 5639 5638 5637 5635 5633 5631 5629 5627 5625 5623 5621 5618 5616 5614 5612 5610 5608 5606 5603 5601 5599 5597 5595 5592 5590 5587 5585 5583
5636 5636 5636 5636 5635 5634 5633 5632 5630 5629 5627 5626 5625 5623 5621 5619 5617 5616 5614 5612 5610 5608 5605 5604 5602 5600 5598 5596 5594 5591 5589 5587 5584 5582 5579 5577 5575 5573
5624 5624 5624 5623 5623 5622 5621 5619 5618 5617 5615 5614 5613 5611 5610 5607 5606 5604 5603 5601 5599 5597 5595 5593 5591 5590 5587 5585 5583 5581 5579 5576 5574 5572 5569 5567 5565 5563
5612 5612 5611 5611 5610 5609 5608 5607 5606 5604 5603 5602 5601 5600 5598 5596 5594 5593 5591 5590 5589 5587 5584 5583 5580 5579 5577 5575 5573 5570 5568 5566 5563 5561 5559 5556 5554 5553
5600 5600 5599 5598 5598 5597 5596 5595 5593 5592 5591 5591 5590 5588 5587 5586 5584 5582 5580 5579 5577 5576 5574 5572 5570 5568 5566 5564 5562 5560 5557 5555 5553 5550 5548 5546 5544 5542
5588 5588 5587 5586 5585 5585 5584 5583 5582 5581 5580 5579 5579 5577 5576 5574 5573 5572 5570 5568 5567 5565 5563 5562 5560 5558 5556 5554 5551 5549 5547 5545 5542 5540 5537 5535 5533 5531
5577 5576 5575 5574 5574 5573 5573 5572 5571 5570 5569 5568 5567 5566 5565 5564 5563 5561 5560 5558 5557 5555 5553 5552 5550 5548 5546 5544 5541 5539 5537 5534 5532 5530 5527 5525 5523 5521
5565 5564 5563 5563 5562 5561 5561 5561 5560 5559 5558 5558 5557 5556 5555 5554 5552 5551 5549 5548 5546 5545 5543 5542 5540 5538 5537 5535 5532 5529 5527 5525 5523 5521 5518 5516 5513 5511
5554 5553 5552 5552 5551 5550 5550 5550 5549 5549 5548 5547 5546 5546 5545 5543 5542 5541 5539 5538 5536 5535 5533 5532 5530 5528 5526 5525 5523 5521 5518 5516 5514 5512 5509 5507 5504 5502
5542 5542 5541 5541 5540 5540 5540 5539 5539 5538 5538 5537 5536 5536 5535 5533 5532 5531 5529 5528 5527 5525 5524 5522 5520 5518 5517 5515 5514 5512 5510 5507 5505 5503 5501 5499 5496 5494
5531 5531 5531 5530 5530 5530 5530 5529 5529 5528 5527 5527 5526 5525 5525 5523 5522 5522 5520 5519 5518 5516 5515 5513 5511 5509 5508 5506 5505 5504 5502 5500 5497 5495 5493 5490 5488 5486
5521 5521 5521 5520 5520 5520 5520 5520 5519 5518 5517 5517 5516 5516 5515 5514 5513 5512 5511 5510 5510 5508 5506 5504 5503 5501 5499 5498 5496 5495 5493 5491 5489 5487 5485 5483 5480 5478
5512 5512 5512 5512 5512 5512 5511 5510 5509 5508 5508 5507 5506 5506 5505 5505 5504 5503 5503 5502 5501 5500 5499 5497 5495 5493 5491 5490 5488 5486 5485 5483 5481 5479 5477 5475 5473 5471
5503 5504 5504 5504 5503 5503 5502 5501 5500 5499 5498 5498 5497 5496 5496 5496 5495 5495 5494 5494 5493 5492 5490 5489 5487 5485 5484 5482 5481 5479 5477 5475 5474 5472 5469 5468 5466 5464
5494 5495 5495 5495 5495 5494 5493 5492 5491 5490 5489 5489 5488 5488 5487 5487 5487 5486 5486 5485 5484 5483 5482 5481 5479 5478 5476 5475 5474 5471 5469 5468 5466 5465 5463 5461 5459 5457
5485 5486 5486 5486 5486 5485 5484 5484 5483 5482 5482 5481 5480 5479 5479 5479 5479 5478 5478 5477 5476 5476 5475 5473 5472 5470 5469 5468 5467 5465 5462 5461 5459 5457 5456 5454 5452 5450
5477 5477 5477 5477 5477 5476 5476 5475 5475 5475 5474 5473 5472 5472 5471 5471 5471 5470 5470 5469 5469 5468 5467 5466 5464 5463 5462 5461 5460 5458 5456 5454 5452 5450 5449 5447 5445 5443
5467 5468 5468 5468 5468 5468 5468 5468 5467 5467 5466 5466 5465 5464 5464 5464 5463 5463 5463 5462 5462 5461 5460 5459 5457 5456 5455 5454 5453 5451 5450 5448 5446 5444 5442 5440 5438 5436
5458 5459 5459 5459 5460 5460 5460 5460 5460 5460 5459 5458 5458 5457 5457 5457 5456 5456 5455 5455 5454 5454 5453 5452 5451 5450 5449 5448 5446 5445 5443 5442 5440 5438 5436 5433 5431 5430